Location: Unspecified
(41.9000°N, 12.4830°E)
Time: 09:10:38
(UTC+02:00)

ISS - Pass Details

Date: 17 September 2017
Orbit: 401 x 407 km, 51.6° (Epoch: 23 September)

Event Time Altitude Azimuth Distance (km) Brightness Sun altitude
Exits shadow 05:12:12 16° 332° (NNW) 1,153 -1.6 -18.9°
Maximum altitude 05:14:07 27° 22° (NNE) 815 -1.9 -18.6°
Drops below altitude 10° 05:17:00 10° 83° (E) 1,468 0.2 -18.1°
Sets 05:19:17 0° 96° (E) 2,326 1.2 -17.7°
